SCP
0 0 0 0 0 0 0 0 0 0 0 0 0 0 0 0 0 0 0 0 0 0 0 0 0 0 0 0 0 0 0 0 0 0 0 0 0 0 0 0 0 0 0 0
0 0 0 0 0 0 0 0 0 0 0 0 0 0 0 0 0 0 0 0 0 0 0 0 0 0 0 0 0 0 0 0 0 0 0 0 0 0 0 0 0 0 0 0
0 0 0 0 0 0 0 0 0 0 0 0 0 0 0 0 0 0 0 0 0 0 0 0 0 0 0 0 0 0 0 0 0 0 0 0 0 0 0 0 0 0 0 0
0 0 0 0 0 0 0 0 0 0 0 0 0 0 0 0 0 0 0 0 0 0 0 0 0 0 0 0 0 0 0 0 0 0 0 0 0 0 0 0 0 0 0 0
0 0 0 0 0 0 0 0 0 0 0 0 0 0 0 0 0 0 0 0 0 0 0 0 0 0 0 0 0 0 0 0 0 0 0 0 0 0 0 0 0 0 0 0
0 0 0 0 0 0 0 0 0 0 0 0 0 0 0 0 0 0 0 0 0 0 0 0 0 0 0 0 0 0 0 0 0 0 0 0 0 0 0 0 0 0 0 0
0 0 0 0 0 0 0 0 0 0 0 0 0 0 0 0 0 0 0 0 0 0 0 0 0 0 0 0 0 0 0 0 0 0 0 0 0 0 0 0 0 0 0 0
0 0 0 0 0 0 0 0 0 0 0 0 0 0 0 0 0 0 0 0 0 0 0 0 0 0 0 0 0 0 0 0 0 0 0 0 0 0 0 0 0 0 0 0
0 0 0 0 0 0 0 0 0 0 0 0 0 0 0 0 0 0 0 0 0 0 0 0 0 0 0 0 0 0 0 0 0 0 0 0 0 0 0 0 0 0 0 0
0 0 0 0 0 0 0 0 0 0 0 0 0 0 0 0 0 0 0 0 0 0 0 0 0 0 0 0 0 0 0 0 0 0 0 0 0 0 0 0 0 0 0 0
0 0 0 0 0 0 0 0 0 0 0 0 0 0 0 0 0 0 0 0 0 0 0 0 0 0 0 0 0 0 0 0 0 0 0 0 0 0 0 0 0 0 0 0
0 0 0 0 0 0 0 0 0 0 0 0 0 0 0 0 0 0 0 0 0 0 0 0 0 0 0 0 0 0 0 0 0 0 0 0 0 0 0 0 0 0 0 0
0 0 0 0 0 0 0 0 0 0 0 0 0 0 0 0 0 0 0 0 0 0 0 0 0 0 0 0 0 0 0 0 0 0 0 0 0 0 0 0 0 0 0 0
0 0 0 0 0 0 0 0 0 0 0 0 0 0 0 0 0 0 0 0 0 0 0 0 0 0 0 0 0 0 0 0 0 0 0 0 0 0 0 0 0 0 0 0
0 0 0 0 0 0 0 0 0 0 0 0 0 0 0 0 0 0 0 0 0 0 0 0 0 0 0 0 0 0 0 0 0 0 0 0 0 0 0 0 0 0 0 0
0 0 0 0 0 0 0 0 0 0 0 0 0 0 0 0 0 0 0 0 0 0 0 0 0 0 0 0 0 0 0 0 0 0 0 0 0 0 0 0 0 0 0 0
0 0 0 0 0 0 0 0 0 0 0 0 0 0 0 0 0 0 0 0 0 0 0 0 0 0 0 0 0 0 0 0 0 0 0 0 0 0 0 0 0 0 0 0
0 0 0 0 0 0 0 0 0 0 0 0 0 0 0 0 0 0 0 0 0 0 0 0 0 0 0 0 0 0 0 0 0 0 0 0 0 0 0 0 0 0 0 0
0 0 0 0 0 0 0 0 0 0 0 0 0 0 0 0 0 0 0 0 0 0 0 0 0 0 0 0 0 0 0 0 0 0 0 0 0 0 0 0 0 0 0 0
0 0 0 0 0 0 0 0 0 0 0 0 0 0 0 0 0 0 0 0 0 0 0 0 0 0 0 0 0 0 0 0 0 0 0 0 0 0 0 0 0 0 0 0
0 0 0 0 0 0 0 0 0 0 0 0 0 0 0 0 0 0 0 0 0 0 0 0 0 0 0 0 0 0 0 0 0 0 0 0 0 0 0 0 0 0 0 0
0 0 0 0 0 0 0 0 0 0 0 0 0 0 0 0 0 0 0 0 0 0 0 0 0 0 0 0 0 0 0 0 0 0 0 0 0 0 0 0 0 0 0 0
0 0 0 0 0 0 0 0 0 0 0 0 0 0 0 0 0 0 0 0 0 0 0 0 0 0 0 0 0 0 0 0 0 0 0 0 0 0 0 0 0 0 0 0
0 0 0 0 0 0 0 0 0 0 0 0 0 0 0 0 0 0 0 0 0 0 0 0 0 0 0 0 0 0 0 0 0 0 0 0 0 0 0 0 0 0 0 0
0 0 0 0 0 0 0 0 0 0 0 0 0 0 0 0 0 0 0 0 0 0 0 0 0 0 0 0 0 0 0 0 0 0 0 0 0 0 0 0 0 0 0 0
0 0 0 0 0 0 0 0 0 0 0 0 0 0 0 0 0 0 0 0 0 0 0 0 0 0 0 0 0 0 0 0 0 0 0 0 0 0 0 0 0 0 0 0
0 0 0 0 0 0 0 0 0 0 0 0 0 0 0 0 0 0 0 0 0 0 0 0 0 0 0 0 0 0 0 0 0 0 0 0 0 0 0 0 0 0 0 0
Wind_Speed
8 1 2 5 7 9 10 10 8 5 5 4 4 3 2 1 2 2 2 3 4 5 4 4 4 4 3 3 2 1 1 1 1 2 3 3 3 4 4 4 6 5 5 5
8 5 6 8 9 10 11 9 9 7 5 1 4 2 1 1 2 3 3 3 3 4 4 4 4 3 3 3 3 2 2 1 1 1 1 2 3 3 3 4 5 4 5 5
9 8 7 10 14 14 11 10 7 7 2 3 1 1 1 1 0 1 2 2 3 3 3 3 3 2 3 2 2 2 2 1 1 1 1 2 3 3 4 4 4 4 5 5
9 7 9 3 3 8 10 9 7 5 1 1 1 2 2 1 0 1 1 1 2 2 3 4 4 3 3 3 3 3 2 2 2 2 2 2 3 4 4 4 4 4 4 5
7 9 8 5 5 5 7 8 8 6 4 2 1 3 4 4 2 1 2 2 1 1 2 3 2 2 2 3 4 3 3 2 3 3 3 3 3 4 4 3 4 4 4 4
6 6 7 1 11 7 4 5 7 6 5 4 3 2 4 5 3 3 3 2 1 1 1 1 1 2 1 2 2 2 3 3 2 2 2 3 4 4 4 4 4 5 4 4
8 8 5 8 11 9 5 3 9 8 5 4 1 6 5 5 4 3 3 2 1 0 1 1 1 0 2 3 2 1 1 1 1 2 3 4 4 4 4 4 5 5 5 5
8 9 6 11 9 6 3 6 7 7 5 4 5 6 5 5 4 3 3 3 1 1 1 1 1 2 3 3 2 1 1 2 4 4 5 4 5 5 5 5 5 6 5 5
5 2 5 6 4 4 3 3 5 6 5 5 4 4 4 4 4 3 3 3 1 0 1 1 1 1 2 3 2 2 3 4 5 6 6 6 6 6 5 5 4 4 4 4
4 6 9 6 5 5 2 1 5 5 5 4 4 5 5 4 4 3 3 3 2 2 1 2 2 2 2 3 4 4 5 5 5 6 6 6 5 5 4 4 4 4 4 3
8 5 5 6 7 7 6 4 5 4 4 4 4 5 5 5 5 4 4 4 4 3 3 3 4 4 4 4 5 5 6 5 5 5 5 5 4 5 5 5 5 5 4 4
6 6 7 9 12 10 9 8 7 7 6 4 5 5 6 6 5 4 4 4 5 4 4 5 6 7 7 7 7 7 6 6 4 4 4 4 4 5 8 9 11 12 11 8
8 3 1 4 11 11 10 9 8 8 8 7 6 6 7 7 5 5 5 6 6 6 6 6 7 8 8 8 7 7 6 6 5 5 5 5 5 4 5 6 10 12 13 13
5 5 6 6 7 8 9 10 9 8 8 8 7 7 8 8 7 6 6 5 6 6 6 7 7 8 8 8 8 8 7 6 6 5 5 6 6 5 5 5 4 4 8 14
4 6 5 7 8 9 9 10 10 10 9 9 8 7 8 8 8 6 5 5 6 7 7 7 7 6 7 8 8 8 6 5 5 6 6 5 5 5 5 6 5 4 4 4
8 7 6 9 11 12 12 13 12 12 11 10 9 9 9 9 8 6 5 5 6 7 6 6 6 5 6 8 8 6 5 9 8 6 5 6 6 6 5 5 5 5 4 3
10 11 11 12 13 14 14 13 12 12 12 11 10 10 10 9 8 7 6 6 7 7 6 6 5 5 6 8 8 5 5 6 10 6 5 6 6 7 6 6 6 6 5 6
12 12 13 14 13 12 13 12 11 12 12 11 11 10 10 9 8 7 6 6 7 7 6 5 5 5 6 7 7 5 5 5 5 6 6 6 7 7 7 7 8 9 8 8
9 8 9 11 12 12 11 11 11 12 12 12 11 9 8 8 7 7 7 6 6 5 4 4 6 5 6 8 10 5 5 5 5 5 5 7 7 6 7 7 8 8 8 9
2 1 4 7 10 11 10 11 12 12 11 11 10 10 9 7 7 7 8 6 4 3 3 3 4 5 6 8 11 5 5 5 5 5 5 5 6 6 6 7 7 8 8 8
2 3 6 8 9 10 11 12 12 11 10 10 10 10 9 7 6 6 6 6 5 3 2 2 2 3 4 8 10 4 4 4 4 4 5 5 5 5 6 6 6 6 7 7
2 5 7 9 10 10 10 10 11 11 10 9 10 9 9 7 7 5 5 4 5 3 1 1 2 4 7 10 5 4 4 3 3 3 4 4 4 5 5 5 5 5 5 5
4 6 7 9 10 10 11 10 10 9 9 9 9 8 7 5 4 4 5 4 4 3 0 1 2 5 9 6 5 5 4 4 3 3 4 4 4 4 4 5 5 5 5 5
5 7 8 8 9 10 10 10 9 8 7 7 6 6 6 4 3 3 4 7 6 3 2 1 3 6 8 4 4 4 4 4 3 3 4 4 4 4 4 4 5 5 5 6
5 7 8 8 8 7 9 9 9 8 7 5 6 5 4 3 3 3 3 4 6 5 3 3 6 7 5 4 3 3 4 4 4 4 4 4 4 4 4 4 5 5 5 5
5 5 5 6 5 5 6 6 5 5 5 5 5 5 4 3 3 3 2 2 3 3 3 3 3 4 3 2 3 4 4 5 5 4 4 4 5 5 5 5 7 6 6 6
5 5 4 4 4 4 4 5 5 5 5 5 4 4 4 4 3 3 2 2 1 2 2 2 2 2 3 3 3 4 4 4 4 4 5 5 5 5 5 7 6 6 6 7
Wind_Direction
270 233 240 230 208 202 225 247 273 328 9 5 54 68 70 134 177 189 198 192 188 181 197 196 200 206 200 167 175 220 233 227 274 343 359 357 335 323 331 336 327 327 332 329
265 236 240 250 239 219 219 238 261 288 298 60 83 92 165 206 172 187 203 208 200 192 189 198 216 199 177 166 173 196 228 218 161 253 301 314 305 310 319 311 304 315 318 317
266 225 223 246 229 220 217 217 230 249 256 91 79 46 39 22 51 206 202 190 193 205 187 190 219 176 146 142 148 208 223 195 169 221 267 286 304 312 307 304 308 317 311 313
264 229 230 253 61 187 204 216 217 226 228 115 102 109 139 156 307 294 140 152 177 202 190 193 200 174 156 164 196 212 199 206 207 208 232 252 269 277 281 290 304 303 302 308
261 263 254 192 163 172 192 215 206 206 197 172 160 184 173 137 112 54 66 104 149 192 212 203 186 159 177 206 204 195 189 215 227 214 217 238 262 271 270 275 282 285 289 295
259 262 272 201 140 146 186 230 182 178 168 157 212 219 112 100 94 79 74 74 77 128 270 266 162 143 212 266 259 228 201 211 224 222 225 239 252 265 272 271 269 275 276 273
257 266 266 109 124 143 200 219 150 152 150 166 134 84 104 99 92 89 96 92 74 273 275 333 349 300 251 264 274 286 127 191 240 247 244 242 242 249 263 271 274 275 276 269
219 237 235 138 153 178 116 106 127 134 134 118 93 99 106 104 102 100 111 116 123 275 262 245 274 278 278 278 288 305 263 239 242 245 250 254 240 241 248 260 272 275 273 274
210 185 102 147 148 97 81 138 128 125 116 119 125 123 114 108 105 98 92 102 116 231 321 323 304 291 304 313 312 286 263 250 243 243 243 238 237 240 242 245 251 262 267 271
247 160 171 186 142 142 170 126 104 113 126 144 148 128 118 111 102 93 79 75 71 62 44 10 4 39 18 336 325 305 282 265 252 248 247 243 234 228 229 237 247 258 265 270
244 238 166 183 186 178 173 168 152 148 147 147 134 123 120 111 95 84 75 70 69 55 38 23 20 28 19 356 335 316 302 293 283 272 265 260 250 232 229 228 223 230 241 250
227 229 213 197 189 181 175 183 175 159 145 134 128 124 114 99 87 78 71 68 68 58 43 32 29 30 20 4 351 337 324 320 317 312 301 288 278 273 249 241 243 236 232 233
249 269 44 122 156 167 175 178 170 159 149 141 130 121 115 110 99 89 78 69 66 59 49 42 37 27 12 359 349 337 328 329 329 324 319 310 300 290 287 276 255 248 244 240
204 144 127 136 151 168 175 167 158 150 143 137 129 123 118 114 106 93 82 79 74 66 53 46 40 27 6 355 348 339 337 343 340 324 316 308 303 299 293 290 288 274 250 240
198 177 170 161 162 174 169 161 161 158 149 140 135 133 128 121 113 102 88 81 82 71 56 46 37 19 0 356 347 340 342 344 335 322 314 313 315 314 310 307 301 295 292 266
211 193 183 175 175 178 176 176 174 166 157 149 144 137 126 118 114 108 96 83 81 72 57 47 30 9 9 5 347 341 339 347 342 330 333 338 334 328 326 325 323 321 318 321
217 200 195 192 187 187 187 185 177 164 157 152 146 139 135 132 126 119 110 101 92 79 65 49 17 3 23 16 351 342 343 345 349 347 348 351 343 341 342 341 341 340 333 336
234 216 201 195 190 188 188 183 170 158 154 147 144 146 147 142 134 130 123 114 105 89 67 45 11 1 28 26 353 341 348 353 352 355 356 358 352 352 354 354 353 352 348 349
241 223 199 187 180 179 178 169 156 148 144 146 149 145 135 129 129 127 114 100 95 89 69 32 3 18 25 19 357 338 352 356 355 358 359 357 359 360 1 0 359 358 358 360
292 175 162 159 158 160 156 149 144 143 146 149 143 136 133 132 132 127 118 108 91 71 55 25 10 25 20 1 345 334 350 354 354 356 358 357 355 357 359 359 359 358 359 360
28 105 128 135 137 139 141 142 142 145 146 145 144 142 138 136 136 133 131 125 112 70 349 334 31 40 17 345 328 328 339 343 347 350 351 350 349 349 352 355 355 356 357 356
92 113 125 129 133 136 139 140 142 144 143 143 141 140 140 142 139 129 119 117 123 119 302 356 60 31 351 336 313 312 319 330 338 340 340 339 340 339 341 344 344 346 346 345
137 135 137 141 145 144 142 143 145 145 145 144 144 146 146 140 143 147 144 134 124 119 285 3 32 342 333 321 303 307 315 328 337 336 334 332 329 327 327 331 330 330 328 328
154 150 150 154 153 151 150 147 144 144 143 141 142 142 140 138 146 139 123 133 142 154 246 239 275 301 309 292 293 309 324 329 329 330 324 313 308 312 315 316 316 316 315 316
164 160 161 161 159 155 151 148 147 146 147 147 149 150 155 150 143 130 124 141 159 186 242 267 281 286 279 278 302 326 325 316 311 303 291 296 303 306 307 309 312 309 305 301
166 159 156 159 151 145 148 150 149 151 156 157 160 162 163 149 143 145 164 205 217 213 235 252 262 269 280 311 322 310 301 305 312 315 315 315 311 311 307 306 307 305 303 301
161 151 143 148 138 143 148 152 157 165 169 168 167 165 163 158 159 168 183 210 236 246 260 277 292 304 310 308 302 303 310 315 316 315 314 310 308 307 306 309 308 304 302 301